Regional Weather Roundup
Issued by NWS Boston, MA

Home | Current Version | Previous Version | Text Only | Print | Product List | Glossary On
Versions: 1 2 3 4 5 6 7 8 9 10 11 12 13 14 15 16 17 18 19 20 21 22 23 24 25 26 27 28 29 30 31 32 33 34 35 36 37 38 39 40 41 42 43 44 45 46 47 48 49 50
000
ASUS41 KBOX 111610
RWRBOX

REGIONAL WEATHER ROUNDUP
NATIONAL WEATHER SERVICE TAUNTON MA
1200 PM EDT FRI JUL 11 2014

NOTE:  "FAIR" INDICATES FEW OR NO CLOUDS BELOW 12,000 FEET WITH NO
SIGNIFICANT WEATHER AND/OR OBSTRUCTIONS TO VISIBILITY.  THE FOLLOWING
OBSERVATION LOCATIONS DO NOT REPORT PRESENT WEATHER...PROVINCETOWN...
SMITHFIELD...BLOCK ISLAND...KEENE...AND OXFORD.

MAZALL-111700-
EASTERN MASSACHUSETTS

CITY           SKY/WX    TMP DP  RH WIND       PRES   REMARKS
BOSTON         MOSUNNY   72  55  55 E10       30.23F
BEVERLY        SUNNY     75  56  51 MISG      30.22F
LAWRENCE       SUNNY     75  54  47 NE9       30.24F
BEDFORD        SUNNY     77  55  46 MISG      30.21F
BLUE HILL        N/A     73  56  54 E12       30.22F
NORWOOD        SUNNY     76  57  51 NE8       30.21F
MARSHFIELD     SUNNY     72  57  60 NE7       30.23S
PLYMOUTH       MOSUNNY   77  59  53 NE7       30.21F
TAUNTON        SUNNY     79  60  52 NE5       30.19F
NEW BEDFORD    MOSUNNY   80  60  50 CALM      30.18F
$$

MAZALL-111700-
CAPE COD AND THE ISLANDS

CITY           SKY/WX    TMP DP  RH WIND       PRES   REMARKS
FALMOUTH       PTSUNNY   77  61  57 VRB5      30.20S
HYANNIS        PTSUNNY   77  62  59 N8        30.18S
CHATHAM        PTSUNNY   75  58  55 E7        30.20F
NANTUCKET      PTSUNNY   75  57  53 E7        30.19S
MARTHAS VNYRD  PTSUNNY   77  58  51 E9        30.20S
$$

MAZALL-111700-
CENTRAL AND WESTERN MASSACHUSETTS

CITY           SKY/WX    TMP DP  RH WIND       PRES   REMARKS
WORCESTER      SUNNY     74  54  49 NE7       30.24F
FITCHBURG      SUNNY     75  53  46 VRB3      30.24F
ORANGE           N/A    N/A N/A N/A MISG      30.22F
SPRINGFIELD    SUNNY     77  57  50 N3        30.21F
WESTFIELD      SUNNY     78  57  48 NE6       30.22F
NORTH ADAMS    MOSUNNY   75  48  38 CALM      30.23F
PITTSFIELD     SUNNY     74  49  41 CALM      30.24F
$$

RIZALL-111700-
RHODE ISLAND

CITY           SKY/WX    TMP DP  RH WIND       PRES   REMARKS
PROVIDENCE     MOSUNNY   79  60  52 E5        30.21S
NEWPORT        MOSUNNY   77  63  61 VRB5      30.20S
BLOCK ISLAND   MOSUNNY   73  64  73 E7        30.21F
SMITHFIELD     SUNNY     75  57  53 CALM      30.24S
WESTERLY       PTSUNNY   77  62  59 S9        30.21R
$$

CTZALL-111700-
CONNECTICUT

CITY           SKY/WX    TMP DP  RH WIND       PRES   REMARKS
BRADLEY INTL   MOSUNNY   80  57  45 N5        30.21F
HARTFORD       SUNNY     79  54  41 N5        30.20F
BRIDGEPORT     SUNNY     81  58  45 E12       30.20S
DANBURY        SUNNY     79  56  45 N7        30.23F
GROTON         MOSUNNY   74  64  71 SW8       30.20R
NEW HAVEN      SUNNY     84  56  38 VRB6      30.20S
CHESTER        FAIR      79  55  44 NE6       30.22S
MERIDEN        SUNNY     81  55  40 N6        30.21S
WILLIMANTIC    SUNNY     80  55  42 NE7       30.21F
OXFORD         MOSUNNY   75  55  50 N5        30.25F
$$

MEZ002-015-021-024-NHZ003-005-008-011-012-014-VTZ005-008-111700-
NORTHERN NEW ENGLAND

CITY           SKY/WX    TMP DP  RH WIND       PRES   REMARKS
PORTLAND ME    MOSUNNY   75  52  44 E6        30.23F
BANGOR ME      MOSUNNY   74  52  46 VRB5      30.20F
CONCORD NH     MOSUNNY   76  55  48 VRB5      30.23F
MANCHESTER NH  MOSUNNY   75  51  43 CALM      30.21F
NASHUA NH      SUNNY     76  52  43 VRB5      30.23F
PORTSMOUTH NH  MOSUNNY   75  53  45 E3        30.22F
JAFFREY NH     PTSUNNY   73  51  46 CALM      30.26F
KEENE NH       MOSUNNY   75  50  41 W7        30.23F
BURLINGTON VT  MOSUNNY   75  50  41 W6        30.24F
MT. WASHINGTON MOSUNNY   48  41  76 W14         N/A
$$

NYZ052-076-111700-
EASTERN NEW YORK

CITY           SKY/WX    TMP DP  RH WIND       PRES   REMARKS
ALBANY         MOSUNNY   75  56  51 N6        30.24F
NEW YORK CITY  MOSUNNY   81  53  37 NE10      30.20S
$$

ANZALL-111700-
MARINE OBSERVATIONS

STATION/POSITION TIME  TEMP    WIND        PRES    VSBY  WAVE
                       AIR SEA DIR/SP/G                  HT/PER
                 (UTC) (F)     (DEG/KT/KT) (MB)    (MI)  (FT/S)
BOSTON BUOY      NOT AVBL
BUZZARDS BAY     NOT AVBL
NANTUCKET SOUND  NOT AVBL
MASS BAY-STELLWA NOT AVBL
ISLE OF SHOALS   NOT AVBL
S OF BLOCK IS    NOT AVBL
$$

......................KEY.........................
  SKY/WX - SKY CONDITION/PRESENT WEATHER
  TMP    - TEMPERATURE IN FAHRENHEIT
  DWPT   - DEWPOINT IN FAHRENHEIT
  RH     - RELATIVE HUMIDITY IN PERCENT
  WIND   - DIRECTION AND SPEED IN MPH
  PRES   - MEAN SEA LEVEL PRESSURE IN INCHES OF HG
  WCI    - WIND CHILL INDEX
  VSB    - VISIBILITY IN MILES
  HX     - HEAT INDEX
  TC     - TEMPERATURE IN CELSIUS
  VRB    - VARIABLE WIND DIRECTION
  N/A    - NOT AVAILABLE


USA.gov is the U.S. government's official web portal to all federal, state and local government web resources and services.